SWA3541 KMDW-KSAN

Flight info

Callsign SWA3541
Flight time 3h 43m
Altitude 36000
Route PEKUE OBENE MONNY JORDY KP72C BFF EKR KU54Q PROMT Q88 HAKMN Q73 LVELL LUCKI1
Aircraft B38M/M-SDE1FGHILORVWXY/HB1

Departure

Time 2026-05-06 21:22
Airport Chicago Midway International Airport (KMDW)

Arrival

Time 2026-05-07 01:05
Airport San Diego International Airport (KSAN)
Time Latitude Longitude Altitude Speed Heading
2026-05-06 21:02 41.78588 -87.74572 636 ft 0 kts
2026-05-06 21:16 41.78584 -87.74572 636 ft 2 kts
2026-05-06 21:16 41.78568 -87.74574 631 ft 2 kts
2026-05-06 21:17 41.78551 -87.74571 631 ft 2 kts 329°
2026-05-06 21:17 41.78538 -87.74558 634 ft 2 kts 292°
2026-05-06 21:17 41.78544 -87.74541 633 ft 1 kts 224°
2026-05-06 21:17 41.78547 -87.74537 631 ft 0 kts 223°
2026-05-06 21:18 41.78545 -87.74539 632 ft 3 kts 223°
2026-05-06 21:19 41.78508 -87.74583 635 ft 10 kts 214°
2026-05-06 21:19 41.78444 -87.74561 636 ft 9 kts 140°
2026-05-06 21:19 41.78403 -87.74502 631 ft 9 kts 134°
2026-05-06 21:19 41.78352 -87.74436 634 ft 11 kts 140°
2026-05-06 21:20 41.78286 -87.74379 637 ft 12 kts 155°
2026-05-06 21:20 41.78211 -87.74325 631 ft 13 kts 150°
2026-05-06 21:20 41.78122 -87.74306 635 ft 14 kts 177°
2026-05-06 21:20 41.78022 -87.74303 634 ft 15 kts 184°
2026-05-06 21:21 41.77946 -87.74387 632 ft 14 kts 274°
2026-05-06 21:21 41.77991 -87.74469 630 ft 0 kts 314°
2026-05-06 21:21 41.78012 -87.74498 630 ft 24 kts 314°
2026-05-06 21:21 41.78317 -87.74925 633 ft 101 kts 313°
2026-05-06 21:22 41.78946 -87.75821 676 ft 156 kts 313°
2026-05-06 21:22 41.79783 -87.76896 1088 ft 177 kts 314°
2026-05-06 21:22 41.80690 -87.77922 2034 ft 166 kts 314°
2026-05-06 21:22 41.81563 -87.78985 2876 ft 177 kts 314°
2026-05-06 21:23 41.82487 -87.80225 3357 ft 200 kts 301°
2026-05-06 21:23 41.82930 -87.82072 3870 ft 221 kts 272°
2026-05-06 21:23 41.82832 -87.84216 4595 ft 239 kts 267°
2026-05-06 21:23 41.82729 -87.86479 5518 ft 245 kts 268°
2026-05-06 21:24 41.82642 -87.88747 6496 ft 249 kts 268°
2026-05-06 21:24 41.82561 -87.91076 7457 ft 252 kts 268°
2026-05-06 21:24 41.82485 -87.93441 8393 ft 256 kts 268°
2026-05-06 21:24 41.82411 -87.95838 9339 ft 260 kts 268°
2026-05-06 21:25 41.82339 -87.98273 10229 ft 264 kts 268°
2026-05-06 21:25 41.82269 -88.00800 10751 ft 281 kts 268°
2026-05-06 21:25 41.82197 -88.03510 11103 ft 301 kts 268°
2026-05-06 21:25 41.82121 -88.06393 11482 ft 318 kts 268°
2026-05-06 21:26 41.82040 -88.09347 12104 ft 323 kts 267°
2026-05-06 21:26 41.81953 -88.12346 13042 ft 322 kts 267°
2026-05-06 21:26 41.81862 -88.15356 13844 ft 323 kts 267°
2026-05-06 21:26 41.81769 -88.18368 14543 ft 325 kts 266°
2026-05-06 21:27 41.81675 -88.21402 15209 ft 327 kts 266°
2026-05-06 21:27 41.81580 -88.24450 15861 ft 328 kts 266°
2026-05-06 21:27 41.81483 -88.27518 16516 ft 330 kts 266°
2026-05-06 21:27 41.81385 -88.30605 17157 ft 332 kts 266°
2026-05-06 21:28 41.81285 -88.33711 17783 ft 335 kts 266°
2026-05-06 21:28 41.81184 -88.36792 18373 ft 337 kts 266°
2026-05-06 21:28 41.81081 -88.39941 18905 ft 339 kts 266°
2026-05-06 21:28 41.80977 -88.43090 19432 ft 341 kts 265°
2026-05-06 21:29 41.80873 -88.46214 19939 ft 343 kts 265°
2026-05-06 21:29 41.80763 -88.49469 20498 ft 344 kts 265°
2026-05-06 21:29 41.80654 -88.52674 21048 ft 345 kts 265°
2026-05-06 21:29 41.80545 -88.55846 21523 ft 347 kts 265°
2026-05-06 21:30 41.80434 -88.59081 22024 ft 349 kts 265°
2026-05-06 21:30 41.80320 -88.62341 22504 ft 351 kts 265°
2026-05-06 21:30 41.80205 -88.65614 22997 ft 353 kts 265°
2026-05-06 21:30 41.80088 -88.68899 23469 ft 355 kts 264°
2026-05-06 21:31 41.79970 -88.72215 23872 ft 357 kts 264°
2026-05-06 21:31 41.79851 -88.75523 24267 ft 358 kts 264°
2026-05-06 21:31 41.79730 -88.78857 24661 ft 359 kts 264°
2026-05-06 21:31 41.79773 -88.82214 25056 ft 364 kts 272°
2026-05-06 21:32 41.80045 -88.85582 25490 ft 363 kts 271°
2026-05-06 21:32 41.80490 -88.92296 26258 ft 365 kts 271°
2026-05-06 21:32 41.80700 -88.95699 26606 ft 367 kts 271°
2026-05-06 21:33 41.80906 -88.99113 26965 ft 369 kts 271°
2026-05-06 21:33 41.81110 -89.02553 27314 ft 371 kts 271°
2026-05-06 21:33 41.81314 -89.06006 27641 ft 372 kts 271°
2026-05-06 21:33 41.81517 -89.09457 27983 ft 373 kts 271°
2026-05-06 21:34 41.81719 -89.12918 28437 ft 372 kts 270°
2026-05-06 21:34 41.81917 -89.16316 28916 ft 370 kts 270°
2026-05-06 21:34 41.82115 -89.19743 29403 ft 367 kts 270°
2026-05-06 21:34 41.82310 -89.23144 29879 ft 365 kts 270°
2026-05-06 21:35 41.82504 -89.26532 30276 ft 364 kts 270°
2026-05-06 21:35 41.82697 -89.29916 30580 ft 364 kts 270°
2026-05-06 21:35 41.82888 -89.33303 30878 ft 364 kts 270°
2026-05-06 21:35 41.83079 -89.36692 31179 ft 364 kts 270°
2026-05-06 21:36 41.83269 -89.40083 31477 ft 365 kts 270°
2026-05-06 21:36 41.83457 -89.43452 31776 ft 365 kts 270°
2026-05-06 21:36 41.83643 -89.46803 32058 ft 365 kts 270°
2026-05-06 21:36 41.83829 -89.50190 32349 ft 365 kts 270°
2026-05-06 21:37 41.84016 -89.53591 32633 ft 365 kts 270°
2026-05-06 21:37 41.84201 -89.56979 32923 ft 365 kts 270°
2026-05-06 21:37 41.84385 -89.60381 33203 ft 365 kts 270°
2026-05-06 21:37 41.84568 -89.63776 33489 ft 365 kts 270°
2026-05-06 21:38 41.84751 -89.67174 33748 ft 365 kts 270°
2026-05-06 21:38 41.84934 -89.70568 34017 ft 366 kts 270°
2026-05-06 21:38 41.85369 -89.73951 34234 ft 371 kts 278°
2026-05-06 21:38 41.85938 -89.77262 34417 ft 371 kts 276°
2026-05-06 21:39 41.86474 -89.80645 34603 ft 371 kts 276°
2026-05-06 21:39 41.87000 -89.84040 34808 ft 372 kts 276°
2026-05-06 21:39 41.87519 -89.87434 35001 ft 372 kts 276°
2026-05-06 21:39 41.88035 -89.90836 35200 ft 373 kts 276°
2026-05-06 21:40 41.88550 -89.94248 35397 ft 373 kts 276°
2026-05-06 21:40 41.89064 -89.97660 35574 ft 374 kts 276°
2026-05-06 21:40 41.89579 -90.01079 35773 ft 374 kts 276°
2026-05-06 21:40 41.90086 -90.04466 35899 ft 376 kts 276°
2026-05-06 21:41 41.90602 -90.07914 36032 ft 377 kts 276°
2026-05-06 21:41 41.91115 -90.11350 36058 ft 377 kts 276°
2026-05-06 21:41 41.92140 -90.18238 36064 ft 376 kts 276°
2026-05-06 21:42 41.93160 -90.25124 36061 ft 376 kts 276°
2026-05-06 21:42 41.94170 -90.31969 36065 ft 376 kts 276°
2026-05-06 21:43 41.95183 -90.38863 36079 ft 376 kts 276°
2026-05-06 21:43 41.96191 -90.45755 36071 ft 378 kts 276°
2026-05-06 21:44 41.97200 -90.52683 36069 ft 378 kts 276°
2026-05-06 21:44 41.98203 -90.59605 36071 ft 378 kts 276°
2026-05-06 21:45 41.99199 -90.66507 36087 ft 380 kts 276°
2026-05-06 21:45 42.00201 -90.73475 36071 ft 380 kts 276°
2026-05-06 21:46 42.01198 -90.80451 36080 ft 381 kts 276°
2026-05-06 21:46 42.02196 -90.87458 36084 ft 382 kts 276°
2026-05-06 21:47 42.03184 -90.94428 36086 ft 382 kts 276°
2026-05-06 21:47 42.04174 -91.01447 36087 ft 382 kts 276°
2026-05-06 21:48 42.05157 -91.08448 36091 ft 382 kts 276°
2026-05-06 21:48 42.06139 -91.15469 36092 ft 382 kts 276°
2026-05-06 21:49 42.07113 -91.22462 36090 ft 383 kts 276°
2026-05-06 21:49 42.07906 -91.29518 36082 ft 377 kts 267°
2026-05-06 21:50 42.07997 -91.36596 36082 ft 379 kts 268°
2026-05-06 21:50 42.08088 -91.43669 36079 ft 379 kts 268°
2026-05-06 21:51 42.08170 -91.50752 36084 ft 379 kts 268°
2026-05-06 21:51 42.08246 -91.57805 36087 ft 381 kts 268°
2026-05-06 21:52 42.08319 -91.64940 36081 ft 381 kts 268°
2026-05-06 21:52 42.08388 -91.72071 36083 ft 381 kts 268°
2026-05-06 21:53 42.08452 -91.79186 36079 ft 381 kts 268°
2026-05-06 21:53 42.08511 -91.86271 36082 ft 381 kts 268°
2026-05-06 21:54 42.08567 -91.93403 36092 ft 381 kts 268°
2026-05-06 21:54 42.08618 -92.00548 36095 ft 382 kts 268°
2026-05-06 21:55 42.08664 -92.07694 36093 ft 382 kts 268°
2026-05-06 21:55 42.08707 -92.14824 36095 ft 382 kts 268°
2026-05-06 21:56 42.08744 -92.21926 36096 ft 382 kts 268°
2026-05-06 21:56 42.08777 -92.29074 36101 ft 382 kts 268°
2026-05-06 21:57 42.08807 -92.36241 36102 ft 383 kts 268°
2026-05-06 21:57 42.08831 -92.43400 36098 ft 383 kts 268°
2026-05-06 21:58 42.08851 -92.50518 36099 ft 383 kts 268°
2026-05-06 21:58 42.08867 -92.57697 36099 ft 383 kts 268°
2026-05-06 21:59 42.08878 -92.64864 36100 ft 383 kts 268°
2026-05-06 21:59 42.08885 -92.72046 36100 ft 384 kts 268°
2026-05-06 22:00 42.08887 -92.79181 36101 ft 384 kts 268°
2026-05-06 22:00 42.08884 -92.86370 36091 ft 384 kts 268°
2026-05-06 22:01 42.08878 -92.93560 36092 ft 384 kts 268°
2026-05-06 22:01 42.08867 -93.00757 36089 ft 384 kts 268°
2026-05-06 22:02 42.08852 -93.07899 36081 ft 385 kts 268°
2026-05-06 22:02 42.08831 -93.15117 36089 ft 387 kts 268°
2026-05-06 22:03 42.08806 -93.22362 36091 ft 387 kts 268°
2026-05-06 22:03 42.08777 -93.29598 36093 ft 387 kts 268°
2026-05-06 22:04 42.08745 -93.36788 36090 ft 387 kts 268°
2026-05-06 22:04 42.08709 -93.44004 36087 ft 387 kts 268°
2026-05-06 22:05 42.08668 -93.51253 36083 ft 387 kts 268°
2026-05-06 22:05 42.08665 -93.58488 36084 ft 387 kts 268°
2026-05-06 22:06 42.08659 -93.65737 36083 ft 387 kts 268°
2026-05-06 22:06 42.08649 -93.72927 36083 ft 387 kts 268°
2026-05-06 22:07 42.08635 -93.80154 36068 ft 387 kts 268°
2026-05-06 22:07 42.08615 -93.87411 36067 ft 389 kts 268°
2026-05-06 22:08 42.08592 -93.94697 36063 ft 389 kts 268°
2026-05-06 22:08 42.08563 -94.01932 36072 ft 389 kts 268°
2026-05-06 22:09 42.08530 -94.09213 36087 ft 389 kts 268°
2026-05-06 22:09 42.08493 -94.16482 36101 ft 389 kts 268°
2026-05-06 22:10 42.08451 -94.23772 36104 ft 391 kts 268°
2026-05-06 22:10 42.08404 -94.31063 36111 ft 393 kts 268°
2026-05-06 22:11 42.08352 -94.38412 36117 ft 392 kts 268°
2026-05-06 22:11 42.08295 -94.45736 36124 ft 392 kts 268°
2026-05-06 22:12 42.08234 -94.53077 36130 ft 392 kts 268°
2026-05-06 22:12 42.08169 -94.60382 36126 ft 393 kts 268°
2026-05-06 22:13 42.08098 -94.67759 36132 ft 395 kts 268°
2026-05-06 22:13 42.08022 -94.75150 36082 ft 395 kts 267°
2026-05-06 22:14 42.07942 -94.82510 36079 ft 395 kts 267°
2026-05-06 22:14 42.07857 -94.89846 36084 ft 395 kts 267°
2026-05-06 22:15 42.07768 -94.97232 36090 ft 395 kts 267°
2026-05-06 22:15 42.07672 -95.04655 36103 ft 398 kts 267°
2026-05-06 22:16 42.07572 -95.12082 36109 ft 398 kts 267°
2026-05-06 22:16 42.07468 -95.19483 36105 ft 398 kts 267°
2026-05-06 22:17 42.07358 -95.26919 36106 ft 398 kts 267°
2026-05-06 22:17 42.07244 -95.34363 36093 ft 398 kts 267°
2026-05-06 22:18 42.07124 -95.41836 36105 ft 402 kts 268°
2026-05-06 22:18 42.06999 -95.49302 36103 ft 403 kts 268°
2026-05-06 22:19 42.06869 -95.56842 36102 ft 403 kts 268°
2026-05-06 22:19 42.06733 -95.64377 36106 ft 403 kts 267°
2026-05-06 22:20 42.06593 -95.71912 36094 ft 403 kts 268°
2026-05-06 22:20 42.06448 -95.79394 36107 ft 404 kts 267°
2026-05-06 22:21 42.06297 -95.86944 36104 ft 404 kts 267°
2026-05-06 22:21 42.06141 -95.94506 36093 ft 404 kts 267°
2026-05-06 22:22 42.05981 -96.02057 36097 ft 404 kts 267°
2026-05-06 22:22 42.05816 -96.09561 36099 ft 404 kts 268°
2026-05-06 22:23 42.05646 -96.17119 36095 ft 406 kts 268°
2026-05-06 22:23 42.05469 -96.24706 36094 ft 406 kts 267°
2026-05-06 22:24 42.05288 -96.32298 36097 ft 406 kts 267°
2026-05-06 22:24 42.05102 -96.39884 36098 ft 406 kts 267°
2026-05-06 22:25 42.04912 -96.47400 36093 ft 406 kts 268°
2026-05-06 22:25 42.04715 -96.54996 36107 ft 407 kts 267°
2026-05-06 22:26 42.04514 -96.62609 36106 ft 407 kts 267°
2026-05-06 22:26 42.04308 -96.70166 36116 ft 407 kts 267°
2026-05-06 22:27 42.04096 -96.77770 36109 ft 407 kts 267°
2026-05-06 22:27 42.03880 -96.85351 36105 ft 407 kts 267°
2026-05-06 22:28 42.03657 -96.92983 36119 ft 409 kts 267°
2026-05-06 22:28 42.03429 -97.00619 36126 ft 409 kts 267°
2026-05-06 22:29 42.03198 -97.08200 36124 ft 409 kts 267°
2026-05-06 22:29 42.02960 -97.15822 36127 ft 409 kts 267°
2026-05-06 22:30 42.02717 -97.23457 36124 ft 408 kts 267°
2026-05-06 22:30 42.02469 -97.31087 36128 ft 408 kts 267°
2026-05-06 22:31 42.02218 -97.38664 36128 ft 409 kts 267°
2026-05-06 22:31 42.01960 -97.46290 36128 ft 409 kts 267°
2026-05-06 22:32 42.01698 -97.53906 36126 ft 409 kts 267°
2026-05-06 22:32 42.01431 -97.61545 36108 ft 410 kts 267°
2026-05-06 22:33 42.01160 -97.69158 36120 ft 412 kts 267°
2026-05-06 22:33 42.00882 -97.76849 36123 ft 412 kts 267°
2026-05-06 22:34 42.00600 -97.84510 36111 ft 412 kts 267°
2026-05-06 22:34 42.00312 -97.92206 36107 ft 412 kts 267°
2026-05-06 22:35 42.00051 -97.99839 36094 ft 412 kts 271°
2026-05-06 22:35 42.00113 -98.07569 36097 ft 414 kts 270°
2026-05-06 22:36 42.00143 -98.15291 36104 ft 414 kts 270°
2026-05-06 22:36 42.00164 -98.23034 36106 ft 414 kts 270°
2026-05-06 22:37 42.00180 -98.30723 36110 ft 414 kts 270°
2026-05-06 22:37 42.00190 -98.38476 36102 ft 416 kts 270°
2026-05-06 22:38 42.00195 -98.46268 36100 ft 417 kts 270°
2026-05-06 22:38 42.00195 -98.54047 36104 ft 417 kts 270°
2026-05-06 22:39 42.00190 -98.61795 36100 ft 417 kts 270°
2026-05-06 22:39 42.00179 -98.69590 36098 ft 417 kts 270°
2026-05-06 22:40 42.00164 -98.77378 36096 ft 419 kts 270°
2026-05-06 22:40 42.00142 -98.85200 36088 ft 419 kts 270°
2026-05-06 22:41 42.00100 -98.96902 36091 ft 419 kts 270°
2026-05-06 22:42 42.00066 -99.04736 36086 ft 419 kts 270°
2026-05-06 22:42 42.00033 -99.11247 36077 ft 420 kts 271°
2026-05-06 22:43 41.99989 -99.19123 36089 ft 423 kts 270°
2026-05-06 22:43 41.99930 -99.28299 36089 ft 423 kts 270°
2026-05-06 22:44 41.99874 -99.36200 36090 ft 423 kts 270°
2026-05-06 22:44 41.99822 -99.42764 36087 ft 423 kts 270°
2026-05-06 22:45 41.99757 -99.50648 36080 ft 424 kts 271°
2026-05-06 22:45 41.99684 -99.58606 36086 ft 425 kts 271°
2026-05-06 22:46 41.99607 -99.66551 36088 ft 425 kts 271°
2026-05-06 22:46 41.99524 -99.74441 36090 ft 426 kts 271°
2026-05-06 22:47 41.99435 -99.82396 36083 ft 427 kts 271°
2026-05-06 22:47 41.99341 -99.90395 36087 ft 430 kts 271°
2026-05-06 22:48 41.99240 -99.98431 36078 ft 430 kts 271°
2026-05-06 22:48 41.99134 -100.06412 36084 ft 430 kts 271°
2026-05-06 22:49 41.99023 -100.14444 36082 ft 430 kts 271°
2026-05-06 22:49 41.98905 -100.22461 36058 ft 430 kts 272°
2026-05-06 22:50 41.98782 -100.30535 36082 ft 433 kts 272°
2026-05-06 22:50 41.98653 -100.38567 36066 ft 432 kts 272°
2026-05-06 22:51 41.98518 -100.46646 36067 ft 433 kts 272°
2026-05-06 22:51 41.98377 -100.54711 36063 ft 432 kts 272°
2026-05-06 22:52 41.98231 -100.62800 36052 ft 435 kts 272°
2026-05-06 22:52 41.98079 -100.70885 36068 ft 436 kts 272°
2026-05-06 22:53 41.97920 -100.79019 36068 ft 435 kts 272°
2026-05-06 22:53 41.97756 -100.87131 36067 ft 436 kts 272°
2026-05-06 22:54 41.97585 -100.95267 36073 ft 436 kts 272°
2026-05-06 22:54 41.97410 -101.03352 36082 ft 436 kts 272°
2026-05-06 22:55 41.97229 -101.11486 36077 ft 436 kts 272°
2026-05-06 22:55 41.97042 -101.19609 36081 ft 436 kts 272°
2026-05-06 22:56 41.96848 -101.27745 36080 ft 436 kts 272°
2026-05-06 22:56 41.96648 -101.35903 36073 ft 438 kts 272°
2026-05-06 22:57 41.96443 -101.44040 36072 ft 439 kts 272°
2026-05-06 22:57 41.96232 -101.52215 36075 ft 439 kts 272°
2026-05-06 22:58 41.96014 -101.60413 36076 ft 439 kts 272°
2026-05-06 22:58 41.95790 -101.68612 36056 ft 439 kts 273°
2026-05-06 22:59 41.95561 -101.76791 36082 ft 442 kts 273°
2026-05-06 22:59 41.95324 -101.85026 36074 ft 442 kts 273°
2026-05-06 23:00 41.95081 -101.93290 36038 ft 442 kts 273°
2026-05-06 23:00 41.94832 -102.01532 36079 ft 442 kts 273°
2026-05-06 23:01 41.94579 -102.09733 36070 ft 444 kts 274°
2026-05-06 23:01 41.94317 -102.18014 36076 ft 445 kts 273°
2026-05-06 23:02 41.94049 -102.26301 36077 ft 444 kts 273°
2026-05-06 23:02 41.93774 -102.34603 36074 ft 445 kts 273°
2026-05-06 23:03 41.93496 -102.42833 36039 ft 445 kts 274°
2026-05-06 23:03 41.93209 -102.51153 36072 ft 446 kts 274°
2026-05-06 23:04 41.92917 -102.59447 36058 ft 445 kts 274°
2026-05-06 23:04 41.92619 -102.67749 36058 ft 446 kts 274°
2026-05-06 23:05 41.92316 -102.76004 36057 ft 446 kts 274°
2026-05-06 23:05 41.92005 -102.84325 36056 ft 447 kts 274°
2026-05-06 23:06 41.91688 -102.92644 36054 ft 447 kts 274°
2026-05-06 23:06 41.91367 -103.00982 36060 ft 447 kts 274°
2026-05-06 23:07 41.91042 -103.09249 36067 ft 447 kts 274°
2026-05-06 23:07 41.90709 -103.17594 36072 ft 448 kts 274°
2026-05-06 23:08 41.90370 -103.25929 36081 ft 448 kts 274°
2026-05-06 23:08 41.90024 -103.34285 36079 ft 448 kts 274°
2026-05-06 23:09 41.89676 -103.42562 36077 ft 448 kts 274°
2026-05-06 23:09 41.88355 -103.50794 36038 ft 467 kts 250°
2026-05-06 23:10 41.85421 -103.58621 36059 ft 472 kts 250°
2026-05-06 23:10 41.82437 -103.66462 36071 ft 472 kts 249°
2026-05-06 23:11 41.79452 -103.74238 36080 ft 472 kts 249°
2026-05-06 23:11 41.76451 -103.82034 36075 ft 472 kts 249°
2026-05-06 23:12 41.73435 -103.89849 36069 ft 473 kts 249°
2026-05-06 23:12 41.70408 -103.97670 36094 ft 473 kts 249°
2026-05-06 23:13 41.67376 -104.05483 36092 ft 473 kts 249°
2026-05-06 23:13 41.64316 -104.13179 36095 ft 477 kts 243°
2026-05-06 23:14 41.60685 -104.20620 36098 ft 478 kts 244°
2026-05-06 23:14 41.57122 -104.28111 36108 ft 479 kts 244°
2026-05-06 23:15 41.53561 -104.35615 36108 ft 478 kts 244°
2026-05-06 23:15 41.50028 -104.43044 36128 ft 478 kts 244°
2026-05-06 23:16 41.46458 -104.50533 36135 ft 478 kts 244°
2026-05-06 23:16 41.42885 -104.58010 36144 ft 478 kts 243°
2026-05-06 23:17 41.39329 -104.65433 36138 ft 478 kts 243°
2026-05-06 23:17 41.35755 -104.72876 36130 ft 478 kts 243°
2026-05-06 23:18 41.32165 -104.80332 36124 ft 478 kts 243°
2026-05-06 23:18 41.28573 -104.87777 36131 ft 478 kts 243°
2026-05-06 23:19 41.24973 -104.95220 36105 ft 479 kts 243°
2026-05-06 23:19 41.21543 -105.02290 36160 ft 480 kts 243°
2026-05-06 23:20 41.17925 -105.09734 36164 ft 479 kts 243°
2026-05-06 23:20 41.14309 -105.17157 36169 ft 479 kts 243°
2026-05-06 23:21 41.10695 -105.24557 36163 ft 479 kts 243°
2026-05-06 23:21 41.07090 -105.31920 36136 ft 480 kts 243°
2026-05-06 23:22 41.03448 -105.39340 36157 ft 481 kts 243°
2026-05-06 23:22 40.99800 -105.46756 36151 ft 480 kts 243°
2026-05-06 23:23 40.96155 -105.54148 36144 ft 480 kts 243°
2026-05-06 23:23 40.92502 -105.61539 36140 ft 480 kts 243°
2026-05-06 23:24 40.88865 -105.68879 36125 ft 481 kts 243°
2026-05-06 23:24 40.85191 -105.76274 36145 ft 481 kts 243°
2026-05-06 23:25 40.81530 -105.83630 36140 ft 481 kts 243°
2026-05-06 23:25 40.77847 -105.91009 36140 ft 481 kts 243°
2026-05-06 23:26 40.74191 -105.98316 36135 ft 481 kts 243°
2026-05-06 23:26 40.70500 -106.05678 36137 ft 482 kts 243°
2026-05-06 23:27 40.66813 -106.13013 36138 ft 482 kts 243°
2026-05-06 23:27 40.63106 -106.20371 36136 ft 482 kts 243°
2026-05-06 23:28 40.59416 -106.27679 36127 ft 482 kts 242°
2026-05-06 23:28 40.55710 -106.35000 36105 ft 482 kts 242°
2026-05-06 23:29 40.51985 -106.42342 36140 ft 483 kts 242°
2026-05-06 23:29 40.48257 -106.49670 36140 ft 482 kts 242°
2026-05-06 23:30 40.44554 -106.56935 36143 ft 482 kts 242°
2026-05-06 23:30 40.40836 -106.64211 36128 ft 482 kts 242°
2026-05-06 23:31 40.37094 -106.71519 36111 ft 483 kts 242°
2026-05-06 23:31 40.33336 -106.78838 36154 ft 484 kts 242°
2026-05-06 23:32 40.29593 -106.86112 36131 ft 485 kts 242°
2026-05-06 23:32 40.25833 -106.93404 36143 ft 485 kts 242°
2026-05-06 23:33 40.22048 -107.00724 36143 ft 485 kts 242°
2026-05-06 23:33 40.18264 -107.08027 36131 ft 485 kts 242°
2026-05-06 23:34 40.14493 -107.15289 36142 ft 486 kts 242°
2026-05-06 23:34 40.10703 -107.22569 36129 ft 485 kts 242°
2026-05-06 23:35 40.06900 -107.29855 36140 ft 486 kts 242°
2026-05-06 23:35 40.03094 -107.37134 36142 ft 485 kts 242°
2026-05-06 23:36 39.99319 -107.44335 36126 ft 486 kts 242°
2026-05-06 23:36 39.95500 -107.51604 36132 ft 485 kts 242°
2026-05-06 23:37 39.91683 -107.58850 36139 ft 485 kts 242°
2026-05-06 23:37 39.87859 -107.66097 36102 ft 485 kts 242°
2026-05-06 23:38 39.84065 -107.73267 36108 ft 486 kts 241°
2026-05-06 23:38 39.80232 -107.80497 36119 ft 486 kts 241°
2026-05-06 23:39 39.76388 -107.87731 36101 ft 486 kts 241°
2026-05-06 23:39 39.72542 -107.94950 36087 ft 487 kts 241°
2026-05-06 23:40 39.68722 -108.02105 36086 ft 486 kts 241°
2026-05-06 23:40 39.64862 -108.09319 36101 ft 486 kts 241°
2026-05-06 23:41 39.60999 -108.16521 36110 ft 487 kts 241°
2026-05-06 23:41 39.57142 -108.23696 36103 ft 486 kts 241°
2026-05-06 23:42 39.53312 -108.30805 36063 ft 486 kts 241°
2026-05-06 23:42 39.49437 -108.37983 36099 ft 487 kts 241°
2026-05-06 23:43 39.45558 -108.45151 36057 ft 486 kts 241°
2026-05-06 23:43 39.41672 -108.52316 36084 ft 488 kts 241°
2026-05-06 23:44 39.37805 -108.59431 36074 ft 487 kts 240°
2026-05-06 23:44 39.33895 -108.66606 36113 ft 488 kts 240°
2026-05-06 23:45 39.29989 -108.73761 36093 ft 487 kts 240°
2026-05-06 23:45 39.26081 -108.80901 36051 ft 488 kts 240°
2026-05-06 23:46 39.22187 -108.88000 36077 ft 488 kts 240°
2026-05-06 23:46 39.18262 -108.95142 36071 ft 488 kts 240°
2026-05-06 23:47 39.14338 -109.02265 36072 ft 488 kts 240°
2026-05-06 23:47 39.10414 -109.09370 36069 ft 488 kts 240°
2026-05-06 23:48 39.06481 -109.16478 36076 ft 488 kts 240°
2026-05-06 23:48 39.02565 -109.23539 36072 ft 488 kts 240°
2026-05-06 23:49 38.98632 -109.30615 36069 ft 488 kts 240°
2026-05-06 23:49 38.94680 -109.37709 36070 ft 488 kts 240°
2026-05-06 23:50 38.90726 -109.44793 36073 ft 488 kts 240°
2026-05-06 23:50 38.84821 -109.55342 36062 ft 488 kts 239°
2026-05-06 23:51 38.80863 -109.62393 36072 ft 488 kts 239°
2026-05-06 23:51 38.76899 -109.69441 36121 ft 487 kts 239°
2026-05-06 23:52 38.72930 -109.76479 36132 ft 487 kts 239°
2026-05-06 23:52 38.68989 -109.83452 36109 ft 488 kts 239°
2026-05-06 23:53 38.64988 -109.90521 36065 ft 490 kts 239°
2026-05-06 23:53 38.60988 -109.97570 36042 ft 490 kts 239°
2026-05-06 23:54 38.56980 -110.04619 36013 ft 490 kts 239°
2026-05-06 23:54 38.53010 -110.11585 36044 ft 490 kts 239°
2026-05-06 23:55 38.48999 -110.18607 36035 ft 490 kts 238°
2026-05-06 23:55 38.44982 -110.25627 36028 ft 490 kts 238°
2026-05-06 23:56 38.40981 -110.32600 36033 ft 489 kts 238°
2026-05-06 23:56 38.36960 -110.39597 36030 ft 489 kts 238°
2026-05-06 23:57 38.32977 -110.46510 36028 ft 489 kts 238°
2026-05-06 23:57 38.28947 -110.53492 36015 ft 489 kts 238°
2026-05-06 23:58 38.24928 -110.60439 36014 ft 489 kts 238°
2026-05-06 23:58 38.20892 -110.67399 36085 ft 489 kts 238°
2026-05-06 23:59 38.16877 -110.74310 36059 ft 489 kts 238°
2026-05-06 23:59 38.12835 -110.81252 36014 ft 490 kts 238°
2026-05-07 00:00 38.08792 -110.88183 35994 ft 489 kts 237°
2026-05-07 00:00 38.04739 -110.95116 35979 ft 490 kts 238°
2026-05-07 00:01 38.00695 -111.02018 35973 ft 490 kts 238°
2026-05-07 00:01 37.96629 -111.08942 35977 ft 490 kts 237°
2026-05-07 00:02 37.92564 -111.15850 35971 ft 490 kts 237°
2026-05-07 00:02 37.88482 -111.22773 35984 ft 491 kts 237°
2026-05-07 00:03 37.84395 -111.29690 35970 ft 490 kts 237°
2026-05-07 00:03 37.80343 -111.36535 35966 ft 491 kts 237°
2026-05-07 00:04 37.76233 -111.43461 35978 ft 493 kts 237°
2026-05-07 00:04 37.72119 -111.50380 35966 ft 492 kts 237°
2026-05-07 00:05 37.68001 -111.57291 35970 ft 493 kts 237°
2026-05-07 00:05 37.63915 -111.64134 35966 ft 492 kts 237°
2026-05-07 00:06 37.59786 -111.71037 35962 ft 493 kts 237°
2026-05-07 00:06 37.55656 -111.77924 35981 ft 492 kts 237°
2026-05-07 00:07 37.51522 -111.84806 36006 ft 492 kts 237°
2026-05-07 00:07 37.47471 -111.91713 36001 ft 492 kts 237°
2026-05-07 00:08 37.43428 -111.98605 36013 ft 493 kts 237°
2026-05-07 00:08 37.39350 -112.05540 35989 ft 492 kts 237°
2026-05-07 00:09 37.35305 -112.12452 35968 ft 492 kts 237°
2026-05-07 00:09 37.31262 -112.19346 35959 ft 493 kts 237°
2026-05-07 00:10 37.27198 -112.26261 35970 ft 492 kts 237°
2026-05-07 00:10 37.23124 -112.33177 35977 ft 493 kts 237°
2026-05-07 00:11 37.19084 -112.40023 35964 ft 492 kts 237°
2026-05-07 00:11 37.15000 -112.46929 35953 ft 493 kts 237°
2026-05-07 00:12 37.10933 -112.53792 35972 ft 494 kts 236°
2026-05-07 00:12 37.06831 -112.60702 35976 ft 494 kts 236°
2026-05-07 00:13 37.02738 -112.67588 36017 ft 494 kts 236°
2026-05-07 00:13 36.98631 -112.74487 36052 ft 494 kts 236°
2026-05-07 00:14 36.94527 -112.81365 36078 ft 494 kts 236°
2026-05-07 00:14 36.90454 -112.88179 36113 ft 494 kts 236°
2026-05-07 00:15 36.86335 -112.95056 36115 ft 494 kts 236°
2026-05-07 00:15 36.82216 -113.01917 36100 ft 494 kts 236°
2026-05-07 00:16 36.78089 -113.08778 36078 ft 494 kts 236°
2026-05-07 00:16 36.73995 -113.15572 36047 ft 495 kts 236°
2026-05-07 00:17 36.69856 -113.22425 36012 ft 494 kts 236°
2026-05-07 00:17 36.65720 -113.29261 35983 ft 494 kts 236°
2026-05-07 00:18 36.61665 -113.36149 35981 ft 493 kts 238°
2026-05-07 00:18 36.57717 -113.43140 35954 ft 494 kts 237°
2026-05-07 00:19 36.53790 -113.50046 35961 ft 493 kts 237°
2026-05-07 00:19 36.49822 -113.57006 35964 ft 493 kts 237°
2026-05-07 00:20 36.45858 -113.63945 35950 ft 494 kts 237°
2026-05-07 00:20 36.41874 -113.70907 35948 ft 494 kts 237°
2026-05-07 00:21 36.37918 -113.77805 35936 ft 495 kts 237°
2026-05-07 00:21 36.33899 -113.84798 35926 ft 498 kts 237°
2026-05-07 00:22 36.29889 -113.91763 35923 ft 498 kts 237°
2026-05-07 00:22 36.25863 -113.98739 35922 ft 498 kts 237°
2026-05-07 00:23 36.21834 -114.05707 35914 ft 497 kts 237°
2026-05-07 00:23 36.17844 -114.12594 35901 ft 496 kts 237°
2026-05-07 00:24 36.13820 -114.19525 35885 ft 496 kts 237°
2026-05-07 00:24 36.09793 -114.26451 35903 ft 496 kts 236°
2026-05-07 00:25 36.05363 -114.32994 35923 ft 498 kts 230°
2026-05-07 00:25 36.00774 -114.39371 35880 ft 498 kts 230°
2026-05-07 00:26 35.96192 -114.45712 35895 ft 497 kts 230°
2026-05-07 00:26 35.91587 -114.52071 35921 ft 497 kts 230°
2026-05-07 00:27 35.86975 -114.58429 35931 ft 497 kts 230°
2026-05-07 00:27 35.82364 -114.64774 35967 ft 498 kts 230°
2026-05-07 00:28 35.77776 -114.71074 35966 ft 497 kts 229°
2026-05-07 00:28 35.73152 -114.77413 35989 ft 497 kts 229°
2026-05-07 00:29 35.68536 -114.83729 35999 ft 497 kts 229°
2026-05-07 00:30 35.59290 -114.96377 36002 ft 498 kts 229°
2026-05-07 00:30 35.54688 -115.02657 35984 ft 497 kts 229°
2026-05-07 00:31 35.49505 -115.08141 35994 ft 495 kts 205°
2026-05-07 00:31 35.43059 -115.11146 35970 ft 498 kts 198°
2026-05-07 00:32 35.36508 -115.13945 36011 ft 499 kts 198°
2026-05-07 00:32 35.29980 -115.16675 35997 ft 498 kts 197°
2026-05-07 00:33 35.23433 -115.19404 36000 ft 499 kts 197°
2026-05-07 00:33 35.16866 -115.22136 35996 ft 499 kts 197°
2026-05-07 00:34 35.10180 -115.24348 36003 ft 497 kts 191°
2026-05-07 00:34 35.03485 -115.26181 35968 ft 498 kts 190°
2026-05-07 00:35 34.96723 -115.28016 35977 ft 498 kts 190°
2026-05-07 00:35 34.89958 -115.29847 35969 ft 499 kts 190°
2026-05-07 00:36 34.83181 -115.31678 35970 ft 499 kts 190°
2026-05-07 00:36 34.76476 -115.33774 35958 ft 500 kts 196°
2026-05-07 00:37 34.69904 -115.36428 35962 ft 502 kts 196°
2026-05-07 00:37 34.63269 -115.39130 35946 ft 503 kts 196°
2026-05-07 00:38 34.56642 -115.41826 35950 ft 503 kts 196°
2026-05-07 00:38 34.50049 -115.44503 35945 ft 503 kts 196°
2026-05-07 00:39 34.43407 -115.47195 35949 ft 503 kts 196°
2026-05-07 00:39 34.36799 -115.49991 35927 ft 504 kts 205°
2026-05-07 00:40 34.30773 -115.54331 35911 ft 506 kts 210°
2026-05-07 00:40 34.24793 -115.58712 35951 ft 507 kts 210°
2026-05-07 00:41 34.18593 -115.62649 35957 ft 501 kts 198°
2026-05-07 00:41 34.12075 -115.65715 35938 ft 502 kts 199°
2026-05-07 00:42 34.05574 -115.68785 35958 ft 503 kts 199°
2026-05-07 00:42 33.99069 -115.71851 35965 ft 503 kts 199°
2026-05-07 00:43 33.95849 -115.73365 35781 ft 502 kts 199°
2026-05-07 00:43 33.92594 -115.74907 34738 ft 509 kts 200°
2026-05-07 00:43 33.89276 -115.76537 33702 ft 518 kts 199°
2026-05-07 00:43 33.85987 -115.78147 33099 ft 508 kts 199°
2026-05-07 00:44 33.82717 -115.79743 32103 ft 508 kts 199°
2026-05-07 00:44 33.79440 -115.81339 31050 ft 509 kts 199°
2026-05-07 00:44 33.76158 -115.82902 30194 ft 505 kts 199°
2026-05-07 00:44 33.72906 -115.84424 29443 ft 497 kts 199°
2026-05-07 00:45 33.69719 -115.85920 28905 ft 488 kts 199°
2026-05-07 00:45 33.66565 -115.87400 28295 ft 484 kts 199°
2026-05-07 00:45 33.63447 -115.88863 27680 ft 482 kts 199°
2026-05-07 00:45 33.60330 -115.90324 27045 ft 480 kts 199°
2026-05-07 00:46 33.57228 -115.91778 26421 ft 478 kts 199°
2026-05-07 00:46 33.54166 -115.93324 25749 ft 478 kts 206°
2026-05-07 00:46 33.51503 -115.95524 25185 ft 470 kts 224°
2026-05-07 00:46 33.49367 -115.98488 24809 ft 470 kts 234°
2026-05-07 00:47 33.47434 -116.01637 24274 ft 467 kts 236°
2026-05-07 00:47 33.45556 -116.04781 23689 ft 466 kts 236°
2026-05-07 00:47 33.43700 -116.07930 23062 ft 464 kts 236°
2026-05-07 00:47 33.41857 -116.11086 22478 ft 460 kts 237°
2026-05-07 00:48 33.40035 -116.14214 21940 ft 456 kts 236°
2026-05-07 00:48 33.38226 -116.17320 21390 ft 452 kts 237°
2026-05-07 00:48 33.36434 -116.20394 20875 ft 449 kts 236°
2026-05-07 00:48 33.34578 -116.23365 20290 ft 447 kts 227°
2026-05-07 00:49 33.32214 -116.25674 19784 ft 444 kts 210°
2026-05-07 00:49 33.29509 -116.27390 19339 ft 439 kts 206°
2026-05-07 00:49 33.26803 -116.29033 18848 ft 436 kts 206°
2026-05-07 00:49 33.24099 -116.30647 18344 ft 434 kts 205°
2026-05-07 00:50 33.21394 -116.32242 17727 ft 433 kts 205°
2026-05-07 00:50 33.18692 -116.33827 17152 ft 431 kts 205°
2026-05-07 00:50 33.16008 -116.35398 16622 ft 429 kts 205°
2026-05-07 00:50 33.13343 -116.36957 16104 ft 422 kts 205°
2026-05-07 00:51 33.10789 -116.38449 15643 ft 407 kts 205°
2026-05-07 00:51 33.08292 -116.39906 15175 ft 394 kts 205°
2026-05-07 00:51 33.05880 -116.41318 14731 ft 382 kts 205°
2026-05-07 00:51 33.03525 -116.42688 14287 ft 371 kts 205°
2026-05-07 00:52 33.01253 -116.44016 13969 ft 357 kts 206°
2026-05-07 00:52 32.99235 -116.45712 13541 ft 357 kts 221°
2026-05-07 00:52 32.97345 -116.47646 13113 ft 359 kts 220°
2026-05-07 00:52 32.95437 -116.49577 12652 ft 359 kts 220°
2026-05-07 00:53 32.93539 -116.51499 12235 ft 355 kts 221°
2026-05-07 00:53 32.91707 -116.53350 11811 ft 346 kts 221°
2026-05-07 00:53 32.89900 -116.55172 11401 ft 336 kts 221°
2026-05-07 00:53 32.88136 -116.56950 10990 ft 328 kts 221°
2026-05-07 00:54 32.86415 -116.58682 10601 ft 320 kts 221°
2026-05-07 00:54 32.84743 -116.60367 10207 ft 313 kts 221°
2026-05-07 00:54 32.83096 -116.62027 9784 ft 309 kts 221°
2026-05-07 00:54 32.81469 -116.63663 9362 ft 303 kts 221°
2026-05-07 00:55 32.79883 -116.65259 8985 ft 295 kts 221°
2026-05-07 00:55 32.78338 -116.66815 8652 ft 289 kts 221°
2026-05-07 00:55 32.77030 -116.68566 8322 ft 282 kts 240°
2026-05-07 00:55 32.76088 -116.70548 7965 ft 275 kts 242°
2026-05-07 00:56 32.75177 -116.72469 7598 ft 260 kts 242°
2026-05-07 00:56 32.74313 -116.74290 7289 ft 247 kts 242°
2026-05-07 00:56 32.73495 -116.76012 7002 ft 232 kts 242°
2026-05-07 00:56 32.72725 -116.77635 6688 ft 218 kts 243°
2026-05-07 00:57 32.72014 -116.79136 6454 ft 198 kts 242°
2026-05-07 00:57 32.71360 -116.80510 6165 ft 184 kts 243°
2026-05-07 00:57 32.70767 -116.81793 6022 ft 173 kts 248°
2026-05-07 00:57 32.70363 -116.83109 5858 ft 173 kts 255°
2026-05-07 00:58 32.69963 -116.84450 5616 ft 172 kts 253°
2026-05-07 00:58 32.69540 -116.85761 5394 ft 169 kts 253°
2026-05-07 00:58 32.69116 -116.87058 5216 ft 168 kts 251°
2026-05-07 00:58 32.68718 -116.88348 5034 ft 166 kts 253°
2026-05-07 00:59 32.67963 -116.90904 4619 ft 163 kts 254°
2026-05-07 00:59 32.67587 -116.92175 4452 ft 163 kts 253°
2026-05-07 00:59 32.67373 -116.93468 4216 ft 158 kts 281°
2026-05-07 01:00 32.67567 -116.94734 4060 ft 156 kts 283°
2026-05-07 01:00 32.67786 -116.95978 3898 ft 157 kts 286°
2026-05-07 01:00 32.68063 -116.97225 3731 ft 155 kts 289°
2026-05-07 01:00 32.68362 -116.98449 3534 ft 154 kts 288°
2026-05-07 01:01 32.68662 -116.99676 3330 ft 156 kts 287°
2026-05-07 01:01 32.68964 -117.00913 3134 ft 156 kts 288°
2026-05-07 01:01 32.69263 -117.02140 2951 ft 154 kts 288°
2026-05-07 01:01 32.69559 -117.03352 2781 ft 152 kts 287°
2026-05-07 01:02 32.69853 -117.04556 2678 ft 152 kts 287°
2026-05-07 01:02 32.70145 -117.05753 2494 ft 151 kts 287°
2026-05-07 01:02 32.70436 -117.06946 2234 ft 150 kts 288°
2026-05-07 01:02 32.70717 -117.08099 2033 ft 144 kts 288°
2026-05-07 01:03 32.70996 -117.09243 1941 ft 146 kts 287°
2026-05-07 01:03 32.71283 -117.10418 1860 ft 149 kts 287°
2026-05-07 01:03 32.71568 -117.11590 1497 ft 146 kts 287°
2026-05-07 01:03 32.71845 -117.12734 1160 ft 144 kts 286°
2026-05-07 01:04 32.72110 -117.13853 875 ft 137 kts 287°
2026-05-07 01:04 32.72350 -117.14929 608 ft 136 kts 285°
2026-05-07 01:04 32.72615 -117.16021 459 ft 142 kts 285°
2026-05-07 01:04 32.72896 -117.17118 293 ft 137 kts 288°
2026-05-07 01:05 32.73165 -117.18174 52 ft 126 kts 287°
2026-05-07 01:05 32.73393 -117.19106 26 ft 97 kts 284°
2026-05-07 01:05 32.73436 -117.19456 29 ft 10 kts 250°
2026-05-07 01:05 32.73419 -117.19505 30 ft 3 kts 245°
2026-05-07 01:06 32.73410 -117.19533 30 ft 5 kts 251°
2026-05-07 01:06 32.73405 -117.19584 29 ft 8 kts 277°
2026-05-07 01:06 32.73416 -117.19660 28 ft 8 kts 264°
2026-05-07 01:06 32.73388 -117.19718 27 ft 10 kts 240°
2026-05-07 01:07 32.73374 -117.19767 27 ft 2 kts 253°
2026-05-07 01:07 32.73372 -117.19775 27 ft 2 kts 255°
2026-05-07 01:07 32.73372 -117.19777 27 ft 0 kts 255°